Location: Ca�n Batista
(41.4099°N, 1.7752°E)
Time: 14:52:25
(UTC+00:00)

Cosmos 2366 rocket - Pass Details

Date: 03 March 2021
Orbit: 954 x 998 km, 82.9° (Epoch: 21 April)

Event Time Altitude Azimuth Distance (km) Brightness Sun altitude
Rises 20:04:04 0° 195° (SSW) 3,674 7.0 -26.5°
Reaches altitude 10° 20:06:36 10° 199° (SSW) 2,736 6.4 -26.9°
Maximum altitude 20:12:49 63° 280° (W) 1,100 4.4 -28.0°
Drops below altitude 10° 20:19:08 10° 1° (N) 2,773 6.5 -29.2°
Sets 20:21:43 0° 5° (N) 3,728 7.2 -29.6°
